STARLINK-32939, 63149

Orbit data source: Space-Track

STARLINK-32939, 63149 is a payload satellite owned by SpaceX/Seattle (US) in LEO that was launched on Mon, 03 Mar 2025 UTC via an FALCON 9 launch vehicle from the Air Force Eastern Test Range (AFETR). Payload-class satellites include a variety of spacecraft equipped with specific instruments for various scientific and technological missions. These include communications satellites like Starlink; space stations such as the ISS; scientific satellites like the Hubble; Earth observation satellites from companies like Planet Labs, Umbra, and HawkEye 360; GPS; miniature CubeSats for education and research; and military/defense satellites.

Loading next visibility...
Identifier
63149, 2025-043T
Orbit
LEO
Country
Flag of USUS
Related business
Manufacturer
SpaceX/Seattle
Mission
Operational Commercial Communications
Bus & Motor
STARLINK V2M, Unknown motor
Mass
730 kg wet, ~700 kg dry
Launch date (UTC)
2025-03-03 (2 years ago)
Launch vehicle
FALCON 9
Launch site
Air Force Eastern Test Range (AFETR)
Object type
Payload
Rocket body
Debris
Shape & HBR
Box + 2 Pan, 17.7 m
Radar Cross Section
33.884 m², Large (>1 m²)

Expand to show TLE details & history
Last TLE update: 1 day ago

TLE from 1 day ago
0 STARLINK-32939
1 63149U 25043T   26255.09994501  .00011828  00000-0  43854-3 0  9991
2 63149  43.0014  43.2858 0000240 208.1655 151.9184 15.27587305 85870
Epoch: 2026-09-12T02:23Z
TLE epoch observation values (Epoch: 2026-09-12T02:23:55.248Z)
Latitude
-0.00002°
Longitude
16.19178°
Altitude
482.948 km
Speed
7.626 km/s
True Right ascension
02h 53m 08s
True Declination
0° 00' 00"
Sunlit
Object was in full shadow at epoch
Visualization orbit readout
Latitude
Unknown
Longitude
Unknown
Altitude
Unknown
Speed
Unknown
Apparent Right ascension
Unknown
Apparent Declination
Unknown
Sunlit
N/A
Visualization observer readout
Local Sidereal Time
00:42:34
Azimuth
Unknown
Elevation
Unknown
Doppler factor
Unknown
Orbital elements
Apogee altitude
485.137 km
Perigee altitude
484.807 km
Semi-major axis
6,863.109 km
Eccentricity
0.00002
Inclination
43.0014°
RAAN
43.2858°
Arg. of periapsis
208.1655°
True anomaly
151.91969°
Mean anomaly
151.9184°
Eccentric anomaly
151.91905°
Mean motion
3.81735 °/min
Orbital period
94.31 mins
BSTAR
0.00043854
Loading maneuver chart data...
Computing Atmospheric mass density...
Loading historical data...
Loading historical data...
Loading historical data...
Loading historical data...
Loading historical data...
Loading historical data...
Loading historical data...

Documentation

Showing up to 5 results
|